Weather History for Fort Knox, KY

Change the Weather History Date:

Friday, October 5, 2012

  Actual Average Record
Temperature  
Mean Temperature 62 °F -  
Max Temperature 77 °F 70 °F 88 °F (2007)
Min Temperature 46 °F 48 °F 41 °F (2010)
Degree Days  
Heating Degree Days 4    
Growing Degree Days 12 (Base 50)    
Moisture  
Dew Point 57 °F    
Average Humidity 81    
Maximum Humidity 95    
Minimum Humidity 52    
Precipitation  
Precipitation 0.01 in - - ()
Sea Level Pressure  
Sea Level Pressure 30.07 in    
Wind  
Wind Speed 5 mph (SW)    
Max Wind Speed 17 mph    
Max Gust Speed 23 mph    
Visibility 10 miles    
Events Rain    
Averages and records for this station are not official NWS values.
T = Trace of Precipitation, MM = Missing Value Source: NWS Daily Summary

Daily Weather History Graph

Daily Weather History Graph

Search for Another Location

Airport:

Trip Planner

Search our weather history database for the weather conditions in past years. The results will help you decide how hot, cold, wet, or windy it might be!

Date:

Astronomy

Oct. 05, 2012 Rise Set
Actual Time 7:43 AM EDT 7:20 PM EDT
Civil Twilight 7:17 AM EDT 7:46 PM EDT
Nautical Twilight 6:46 AM EDT 8:16 PM EDT
Astronomical Twilight 6:16 AM EDT 8:47 PM EDT
Moon 10:47 PM EDT (10/5) 12:46 PM EDT (10/5)
Length of Visible Light 12h 29m
Length of Day
11h 36m
Waning Gibbous, 74% of the Moon is Illuminated
Oct 5
Waning Gibbous
Oct 8
Last Quarter
Oct 15
New
Oct 21
First Quarter
Oct 29
Full

Hourly Weather History & Observations

Time (EDT) Temp. Windchill Dew Point Humidity Pressure Visibility Wind Dir Wind Speed Gust Speed Precip Events Conditions
12:55 AM 59.0 °F - 55.9 °F 90% 30.16 in 10.0 mi Calm Calm - N/A   Clear
1:55 AM 59.0 °F - 56.1 °F 90% 30.15 in 10.0 mi South 3.5 mph - N/A   Clear
2:55 AM 57.9 °F - 55.6 °F 92% 30.15 in 10.0 mi SSW 4.6 mph - N/A   Partly Cloudy
3:55 AM 57.0 °F - 55.4 °F 94% 30.14 in 10.0 mi South 4.6 mph - N/A   Clear
4:55 AM 56.7 °F - 55.2 °F 95% 30.13 in 10.0 mi South 4.6 mph - N/A   Clear
5:55 AM 55.9 °F - 54.5 °F 95% 30.13 in 10.0 mi Calm Calm - N/A   Scattered Clouds
6:55 AM 57.4 °F - 55.4 °F 93% 30.14 in 10.0 mi South 4.6 mph - N/A   Clear
7:55 AM 56.7 °F - 54.9 °F 94% 30.14 in 10.0 mi West 3.5 mph - N/A   Partly Cloudy
8:55 AM 59.5 °F - 57.2 °F 92% 30.13 in 10.0 mi South 3.5 mph - N/A   Clear
9:55 AM 64.2 °F - 59.2 °F 84% 30.12 in 10.0 mi SSW 3.5 mph - N/A   Clear
10:55 AM 68.9 °F - 60.8 °F 75% 30.12 in 10.0 mi South 5.8 mph - N/A   Clear
11:55 AM 73.6 °F - 61.0 °F 65% 30.11 in 10.0 mi SW 11.5 mph - N/A   Partly Cloudy
12:55 PM 73.9 °F - 61.2 °F 64% 30.09 in 10.0 mi West 11.5 mph - N/A   Partly Cloudy
1:55 PM 76.3 °F - 60.3 °F 57% 30.06 in 10.0 mi WSW 11.5 mph - N/A   Partly Cloudy
2:55 PM 76.6 °F - 57.7 °F 52% 30.03 in 10.0 mi SW 11.5 mph - N/A   Mostly Cloudy
3:55 PM 75.9 °F - 59.0 °F 56% 30.01 in 10.0 mi West 9.2 mph - N/A   Scattered Clouds
4:55 PM 74.8 °F - 61.2 °F 62% 29.99 in 10.0 mi West 8.1 mph - N/A   Mostly Cloudy
5:55 PM 72.3 °F - 61.3 °F 68% 29.97 in 10.0 mi Calm Calm - N/A   Mostly Cloudy
6:55 PM 69.6 °F - 62.8 °F 79% 29.96 in 10.0 mi Calm Calm - N/A   Overcast
7:55 PM 68.4 °F - 62.2 °F 81% 29.96 in 10.0 mi Calm Calm - N/A   Overcast
8:55 PM 66.6 °F - 61.5 °F 84% 29.96 in 10.0 mi NW 11.5 mph - N/A   Overcast
9:55 PM 52.3 °F - 50.0 °F 92% 30.01 in 10.0 mi NW 15.0 mph 19.6 mph 0.00 in Rain Light Rain
10:55 PM 47.3 °F - 44.8 °F 91% 30.03 in 10.0 mi North 8.1 mph 19.6 mph 0.00 in Rain Light Rain
11:55 PM 46.2 °F 39.3 °F 43.9 °F 92% 30.08 in 10.0 mi NNW 17.3 mph 23.0 mph 0.01 in Rain Light Rain